Location: Puerto Pe�asco
(31.3170°N, 113.5330°W)
Time: 22:17:46
(UTC-07:00)

Daily predictions for brighter satellites

Satellite Brightness Start Highest point End
(mag) Time Altitude Azimuth Time Altitude Azimuth Time Altitude Azimuth
NOSS 2-1 (E) 3.2 19:29:49 10° SSW 19:33:23 54° ESE 19:37:02 10° NE
NOSS 3-1 (A) 4.3 19:29:17 10° NNW 19:37:18 83° WSW 19:45:58 10° SSE
OAO 2 Rocket 3.9 19:33:06 10° W 19:38:16 56° N 19:43:18 10° E
YAOGAN 6 4.3 19:36:30 10° ESE 19:38:47 16° ENE 19:41:06 10° NNE
H-2A R/B 3.7 19:36:48 10° S 19:40:22 48° W 19:44:01 10° NNW
NOSS 3-3 (A) 4.0 19:39:11 10° S 19:44:50 50° ESE 19:50:53 10° NE
NOSS 3-3 (C) 4.1 19:39:17 10° S 19:44:56 50° ESE 19:50:58 10° NE
Cosmos 1340 3.0 19:43:27 10° SSE 19:47:01 42° E 19:50:37 10° NNE
Cosmos 494 Rocket 4.3 19:43:28 10° N 19:48:30 48° ENE 19:53:33 10° SE
ATLAS 2A CENTAUR R/B 3.3 19:41:33 10° W 19:49:23 43° SSW 19:51:35 14° SE
Sich 1 4.0 19:48:35 10° NNE 19:52:13 27° E 19:55:09 13° SE
Cosmos 1939 Rocket 3.9 19:52:01 14° ESE 19:54:33 26° ENE 19:57:48 10° NNE
SJ-6B 2.8 19:51:03 10° SSE 19:55:05 68° ENE 19:59:05 10° N
ASTRO E2 4.4 19:54:31 10° SSW 19:57:03 16° SSE 19:58:03 15° SE
In-Cosmos 22 Rocket 4.2 19:52:17 10° N 19:57:38 56° E 20:02:51 10° SSE
Cosmos 2251 Rocket 4.3 19:55:19 10° N 20:00:10 33° ENE 20:03:37 17° SE
Nadezhda 3 Rocket 4.4 19:55:36 10° N 20:01:32 41° E 20:07:28 10° SSE
USA 267 4.1 19:57:37 10° ENE 20:02:46 24° ESE 20:07:52 10° S
Envisat 2.9 19:57:54 10° SSE 20:02:58 78° ENE 20:08:03 10° N
Cosmos 2228 Rocket 4.2 20:09:26 22° ESE 20:10:20 23° E 20:13:49 10° NE
Cosmos 1633 Rocket 3.7 20:07:14 10° NNE 20:11:10 33° E 20:12:59 23° ESE
Meteor 2-14 Rocket 4.4 20:05:19 10° S 20:11:15 59° E 20:17:14 10° NNE
SL-8 R/B 3.6 20:08:55 10° SW 20:13:39 68° SE 20:18:24 10° NE
Meteor 2-3 Rocket 4.4 20:09:24 10° NNE 20:14:25 33° ENE 20:16:58 23° ESE
Meteor 2-16 Rocket 4.5 20:14:12 10° S 20:20:10 57° E 20:26:09 10° NNE
SL-24 R/B - RUBIN 2 4.2 20:18:06 10° N 20:22:08 37° ENE 20:23:29 30° E
Meteor 2-15 Rocket 4.4 20:16:48 10° N 20:22:53 62° E 20:27:58 15° SSE
Thor Agena Rocket 4.3 20:23:13 10° N 20:28:21 57° WNW 20:33:31 10° SSW
GPS 2-05 Rocket1 2.9 20:26:57 10° WNW 20:30:17 58° SSW 20:30:49 50° SSE
Cosmos 2154 Rocket 4.2 20:24:40 10° S 20:30:57 74° W 20:37:12 10° N
Resurs 01 Rocket 1.5 20:30:07 27° SSE 20:32:32 74° ENE 20:36:58 10° N
Cosmos 1805 Rocket 4.3 20:30:30 10° NNW 20:34:43 52° W 20:38:54 10° S
GEOS 3 Rocket 4.0 20:30:06 10° NE 20:35:04 40° ESE 20:39:54 10° S
Cosmos 1328 Rocket 3.4 20:32:23 12° S 20:36:28 79° E 20:40:54 10° N
Cosmos 1980 3.6 20:31:46 10° S 20:37:20 61° ESE 20:42:56 10° NNE
Meteor 1-27 4.2 20:32:09 10° S 20:37:55 85° E 20:43:39 10° N
Cosmos 2333 Rocket 2.5 20:38:07 10° SSW 20:43:45 69° WNW 20:49:24 10° NNE
Cosmos 1455 2.5 20:42:35 14° SSW 20:45:44 64° W 20:49:33 10° N
Spot 2 Rocket 3.4 20:43:54 36° SSE 20:46:03 76° ENE 20:51:09 10° N
Sakura Rocket 3.0 20:43:19 10° WSW 20:47:26 52° S 20:47:26 52° S
COSMOS 2428 4.4 20:44:00 10° SW 20:49:09 34° WNW 20:54:20 10° N
Cosmos 2341 Rocket 4.1 20:44:57 10° S 20:51:19 77° W 20:57:40 10° N
ERS-2 4.1 20:48:25 11° SSW 20:51:23 27° W 20:54:32 10° NW
Meteor 2-10 Rocket 4.5 20:52:18 34° ENE 20:52:18 34° ENE 20:56:41 10° NNE
SJ-11-01 4.3 20:50:24 37° S 20:52:14 80° WSW 20:56:55 10° NNW
Cosmos 1470 Rocket 3.8 20:48:07 10° N 20:52:03 50° ENE 20:52:03 50° ENE
Cosmos 1892 3.5 20:53:00 10° NNW 20:56:46 51° W 20:57:54 37° SW
USA 186 4.3 20:58:22 13° W 20:58:22 13° W 20:59:09 10° WNW
Cosmos 2218 Rocket 4.0 20:56:37 37° SSE 20:59:08 64° E 21:05:26 10° NNE
deb Centaur AC-2 4.0 20:55:17 10° W 20:59:46 75° S 21:00:03 72° SSE
Cosmos 1408 4.4 20:58:06 10° N 20:59:42 23° NNE 20:59:42 23° NNE
Cosmos 1844 Rocket 3.0 20:56:33 10° NNW 21:02:09 63° WSW 21:04:30 35° S
Cosmos 1844 3.7 20:57:03 10° NNW 21:02:46 84° WSW 21:04:26 49° SSE
ATLAS CENTAUR R/B 2.9 20:59:39 10° WSW 21:02:56 32° WNW 21:06:19 10° N
ATLAS 2AS CENTAUR R/B 3.1 20:56:21 10° NNW 21:03:58 54° ENE 21:05:45 45° E
Cosmos 2237 Rocket 2.2 20:59:38 10° SSW 21:05:15 80° WNW 21:10:54 10° NNE
Cosmos 2219 Rocket 3.8 21:01:08 10° SW 21:06:16 35° WNW 21:11:25 10° N
Cosmos 2366 rocket 3.8 21:11:55 54° SSE 21:13:22 76° E 21:19:37 10° N
MetOp-A 4.4 21:14:51 52° NE 21:14:51 52° NE 21:19:34 10° N
H-2A R/B 2.9 21:19:45 36° NE 21:19:45 36° NE 21:23:09 10° N
Cosmos 2278 Rocket 2.5 21:14:11 10° N 21:19:15 52° NE 21:19:15 52° NE
Cosmos 1933 Rocket 4.2 21:16:49 10° N 21:20:08 51° NNW 21:20:08 51° NNW
OAO 2 Rocket 3.4 21:18:10 10° WNW 21:22:52 72° NW 21:22:52 72° NW
SL-8 Rocket 4.3 21:19:00 19° SSW 21:23:37 65° W 21:29:52 10° N
Cosmos 1151 Rocket 4.3 21:26:57 34° WSW 21:27:40 36° W 21:31:38 10° NNW
ERS-1 Rocket 4.0 21:30:18 35° NNE 21:30:18 35° NNE 21:33:26 10° N
ATLAS 3B CENTAUR R/B 4.3 21:22:19 10° W 21:28:58 19° SW 21:30:38 17° SSW
Cosmos 1371 Rocket 4.2 21:30:20 70° W 21:30:29 71° WNW 21:35:50 10° NNE
Cosmos 1339 Rocket 4.5 21:31:16 10° N 21:36:39 67° NNE 21:36:39 67° NNE
ATLAS 2A CENTAUR R/B 3.7 21:25:39 10° WSW 21:42:15 51° S 21:42:28 51° SSE
USA 267 3.4 21:39:28 10° NE 21:45:57 69° NW 21:52:26 10° SW
Cosmos 2056 Rocket 4.4 21:53:18 47° NNW 21:53:18 47° NNW 21:57:34 10° N
SL-16 R/B 3.6 21:56:50 30° NNE 21:56:50 30° NNE 21:59:38 10° NNE
ARGOS 4.3 22:07:35 38° WNW 22:07:35 38° WNW 22:11:28 10° NNW
Cosmos 2344 3.8 22:20:44 61° N 22:20:44 61° N 22:27:13 10° NNE
ATLAS 2AS CENTAUR R/B 4.4 22:48:26 10° NW 22:53:12 24° W 22:53:12 24° W
